Location: Battery Park City
(40.7115°N, 74.0163°W)
Time: 19:54:49
(UTC+00:00)

Okean O Rocket - Pass Details

Date: 08 December 2019
Orbit: 624 x 644 km, 98.2° (Epoch: 22 January)

Event Time Altitude Azimuth Distance (km) Brightness Sun altitude
Rises 22:37:05 0° 201° (SSW) 2,895 5.6 -12.6°
Reaches altitude 10° 22:39:46 10° 218° (SW) 1,992 5.1 -13.1°
Maximum altitude 22:42:58 20° 266° (W) 1,446 4.5 -13.7°
Drops below altitude 10° 22:46:11 10° 314° (NW) 2,001 4.5 -14.3°
Sets 22:48:54 0° 331° (NNW) 2,914 5.2 -14.8°
